Weather History for KPSC - July, 2013

Change the Weather History Date:

Wednesday, July 17, 2013

  Actual Average Record
Temperature  
Mean Temperature 80 °F 74 °F  
Max Temperature 99 °F 92 °F 104 °F (1998)
Min Temperature 61 °F 56 °F 51 °F (2003)
Degree Days  
Heating Degree Days 0 0  
Month to date heating degree days 0 1  
Since 1 June heating degree days 19 33  
Since 1 July heating degree days 0 1  
Cooling Degree Days 15 9  
Month to date cooling degree days 197 129  
Year to date cooling degree days 367 271  
Since 1 June cooling degree days 321 238  
Growing Degree Days 29 (Base 50)    
Moisture  
Dew Point 48 °F    
Average Humidity 48    
Maximum Humidity 84    
Minimum Humidity 12    
Precipitation  
Precipitation 0.00 in 0.01 in 0.07 in (1999)
Month to date precipitation T 0.21  
Year to date precipitation 2.94 5.14  
Snow  
Snow 0.00 in - - ()
Snow Depth 0.00 in    
Sea Level Pressure  
Sea Level Pressure 29.91 in    
Wind  
Wind Speed 5 mph (SSW)    
Max Wind Speed 14 mph    
Max Gust Speed 21 mph    
Visibility 10 miles    
Events      
T = Trace of Precipitation, MM = Missing Value Source: NWS Daily Summary

Daily Weather History Graph

Daily Weather History Graph

Search for Another Location

Airport or City:

Trip Planner

Search our weather history database for the weather conditions in past years. The results will help you decide how hot, cold, wet, or windy it might be!

Date:

Astronomy

Jul. 17, 2013 Rise Set
Actual Time 5:21 AM PDT 8:42 PM PDT
Civil Twilight 4:44 AM PDT 9:19 PM PDT
Nautical Twilight 3:56 AM PDT 10:07 PM PDT
Astronomical Twilight 2:54 AM PDT 11:09 PM PDT
Moon 3:33 PM PDT (7/17) 12:38 AM PDT (7/17)
Length of Visible Light 16h 34m
Length of Day
15h 21m
Waxing Gibbous, 68% of the Moon is Illuminated
Jul 17
Waxing Gibbous
Jul 22
Full
Jul 29
Last Quarter
Aug 6
New
Aug 14
First Quarter

Hourly Weather History & Observations

Time (PDT) Temp. Heat Index Dew Point Humidity Pressure Visibility Wind Dir Wind Speed Gust Speed Precip Events Conditions
12:53 AM 72.0 °F - 54.0 °F 53% 29.76 in 10.0 mi NE 5.8 mph - N/A   Clear
1:53 AM 68.0 °F - 55.9 °F 65% 29.78 in 10.0 mi North 3.5 mph - N/A   Clear
2:53 AM 66.0 °F - 57.0 °F 73% 29.80 in 10.0 mi Calm Calm - N/A   Clear
3:53 AM 64.9 °F - 55.9 °F 73% 29.81 in 10.0 mi Calm Calm - N/A   Clear
4:53 AM 61.0 °F - 55.9 °F 83% 29.84 in 10.0 mi ENE 5.8 mph - N/A   Clear
5:53 AM 64.0 °F - 55.9 °F 75% 29.87 in 10.0 mi Calm Calm - N/A   Clear
6:53 AM 73.0 °F - 54.0 °F 51% 29.89 in 10.0 mi SW 6.9 mph - N/A   Clear
7:53 AM 77.0 °F - 55.0 °F 47% 29.92 in 10.0 mi South 6.9 mph - N/A   Partly Cloudy
8:53 AM 81.0 °F 80.7 °F 55.0 °F 41% 29.94 in 10.0 mi SSW 6.9 mph - N/A   Clear
9:53 AM 86.0 °F 84.2 °F 54.0 °F 33% 29.95 in 10.0 mi SSW 9.2 mph - N/A   Clear
10:53 AM 88.0 °F 85.7 °F 53.1 °F 30% 29.96 in 10.0 mi WSW 5.8 mph - N/A   Clear
11:53 AM 89.1 °F - 52.0 °F 28% 29.96 in 10.0 mi WNW 5.8 mph - N/A   Partly Cloudy
12:53 PM 91.9 °F - 51.1 °F 25% 29.96 in 10.0 mi SE 3.5 mph - N/A   Clear
1:53 PM 93.0 °F - 50.0 °F 23% 29.96 in 10.0 mi Variable 3.5 mph - N/A   Clear
2:53 PM 95.0 °F - 46.9 °F 19% 29.95 in 10.0 mi Variable 3.5 mph - N/A   Clear
3:53 PM 97.0 °F - 46.9 °F 18% 29.94 in 10.0 mi Calm Calm - N/A   Clear
4:53 PM 97.0 °F - 44.1 °F 16% 29.92 in 10.0 mi SW 5.8 mph - N/A   Clear
5:53 PM 97.0 °F - 37.9 °F 13% 29.91 in 10.0 mi SSW 4.6 mph - N/A   Clear
6:53 PM 97.0 °F - 35.1 °F 11% 29.91 in 10.0 mi SW 11.5 mph - N/A   Clear
7:53 PM 93.9 °F - 37.0 °F 14% 29.91 in 10.0 mi South 11.5 mph - N/A   Clear
8:53 PM 90.0 °F - 34.0 °F 14% 29.93 in 10.0 mi South 10.4 mph - N/A   Clear
9:53 PM 82.9 °F - 39.0 °F 21% 29.95 in 10.0 mi SW 5.8 mph - N/A   Clear
10:53 PM 79.0 °F - 39.0 °F 24% 29.97 in 10.0 mi East 3.5 mph - N/A   Clear
11:53 PM 73.9 °F - 44.1 °F 34% 29.99 in 10.0 mi WSW 5.8 mph - N/A   Clear